ARIANE 44L DEB, 28576

Orbit data source: Space-Track

ARIANE 44L DEB, 28576 is space debris in HEO originally from a launch on Tue, 29 Oct 1991 UTC launched from the French Guiana (FRGUI). Debris objects in space refer to the collection of defunct objects orbiting the Earth. Examples of debris include non-operational satellites, rocket bodies, and fragments generated from explosions, collisions, or faulty payload assembly.

Loading next visibility...
Identifier
28576, 1991-075N
Orbit
HEO
Country
Flag of FRFR
Related business
Manufacturer
Unknown
Mission
Spacecraft
Bus & Motor
Unknown
Mass
Unknown
Launch date (UTC)
1991-10-29 (35 years ago)
Launch vehicle
Unknown
Launch site
French Guiana (FRGUI)
Object type
Payload
Rocket body
Debris
Shape & HBR
Unknown shape, 0.8 m
Radar Cross Section
Large (>1 m²)

Expand to show TLE details & history
Last TLE update: 2 days ago

TLE from 2 days ago
0 ARIANE 44L DEB
1 28576U 91075N   26171.33123272 -.00000019  00000-0  28060-2 0  9999
2 28576   6.9488 333.4158 6610522 105.2696 153.2159  2.83947045253663
Epoch: 2026-06-20T07:56Z
TLE epoch observation values (Epoch: 2026-06-20T07:56:58.507Z)
Latitude
-6.89269°
Longitude
-136.38911°
Altitude
28,070.462 km
Speed
2.055 km/s
True Right ascension
16h 45m 36s
True Declination
-6° 53' 03"
Sunlit
Object was in daylight at epoch
Visualization orbit readout
Latitude
Unknown
Longitude
Unknown
Altitude
Unknown
Speed
Unknown
Apparent Right ascension
Unknown
Apparent Declination
Unknown
Sunlit
N/A
Visualization observer readout
Local Sidereal Time
23:08:23
Azimuth
Unknown
Elevation
Unknown
Doppler factor
Unknown
Orbital elements
Apogee altitude
28,621.237 km
Perigee altitude
763.698 km
Semi-major axis
21,070.605 km
Eccentricity
0.66105
Inclination
6.9488°
RAAN
333.4158°
Arg. of periapsis
105.2696°
True anomaly
172.6382°
Mean anomaly
153.2159°
Eccentric anomaly
163.7895°
Mean motion
0.70962 °/min
Orbital period
507.31 mins
BSTAR
0.002806
Loading maneuver chart data...
Computing Atmospheric mass density...
Loading historical data...
Loading historical data...
Loading historical data...
Loading historical data...
Loading historical data...
Loading historical data...
Loading historical data...

Documentation

Showing up to 5 results
|